Flag for Germany Weather past 2 weeks in Varel, Lower Saxony, Germany

Now
45 °F

Sprinkles. Broken clouds.


Feels Like: 35 °F
Forecast: 41 / 47 °F
Wind: 25 mph from Northwest

Location: Wittmundhaven

Current Time: Dec 20, 2014 at 3:42:39 PM

Latest Report: Dec 20, 2014 at 2:20 PM


Visibility: N/A

Pressure: 29.80 "Hg

Humidity: 81%

Dew point: 39 °F

Location of VarelLocation

Historic Weather in Varel — Graph

°F

Varel temperature yesterday

Maximum temperature yesterday: 54 °F (at 1:20 AM)
Minimum temperature yesterday: 43 °F (at 5:20 PM)
Average temperature yesterday: 48 °F

Past Weeks' High & Low Weather Summary

 TemperatureHumidityPressure
High54 °F (Dec 18, 6:20 PM)100% (Dec 6, 4:20 AM)30.30 "Hg (Dec 6, 4:20 AM)
Low30 °F (Dec 7, 1:20 AM)71% (Dec 10, 2:20 PM)29.15 "Hg (Dec 12, 11:20 AM)
Average40 °F90%29.80 "Hg
* Reported Dec 5 2:20 PM — Dec 20 2:20 PM, Varel, Weather by CustomWeather, © 2014

Note: Actual official high and low records may vary slightly from our data, if they occured in-between our weather recording intervals... More about our weather records

Advertising

Varel weather history for previous 24 hours

 ConditionsComfort  
Time TempWeatherWind HumidityBarometerVisibility
2:20 PM
Dec 20
45 °FSprinkles. Broken clouds.25 mph81%29.80 "HgN/A
1:20 PM43 °FScattered clouds.22 mph81%29.80 "HgN/A
12:20 PM41 °FSprinkles. Broken clouds.20 mph87%29.80 "Hg3 mi
11:20 AM37 °FSprinkles. Partly sunny.23 mph93%29.83 "Hg4 mi
10:20 AM43 °FRain showers. Partly sunny.30 mph87%29.80 "Hg2 mi
9:49 AM45 °FRain showers. Broken clouds.30 mph81%29.80 "Hg2 mi
9:20 AM45 °FLight rain. Partly sunny.31 mph76%29.80 "HgN/A
8:20 AM45 °FPartly cloudy.29 mph76%29.80 "HgN/A
7:20 AM45 °FPartly cloudy.25 mph76%29.83 "HgN/A
6:20 AM45 °FPassing clouds.31 mph76%29.86 "HgN/A
5:20 AM45 °FPassing clouds.30 mph76%29.86 "HgN/A
4:49 AM45 °FPassing clouds.28 mph76%29.86 "HgN/A
4:20 AM43 °FPassing clouds.25 mph87%29.86 "HgN/A
3:20 AM43 °FSprinkles. Passing clouds.25 mph81%29.86 "HgN/A
2:20 AM43 °FPassing clouds.28 mph81%29.86 "HgN/A
1:20 AM43 °FPassing clouds.23 mph81%29.86 "HgN/A
12:20 AM43 °FPassing clouds.23 mph81%29.86 "HgN/A
11:20 PM
Dec 19
43 °FPassing clouds.22 mph81%29.83 "HgN/A
10:20 PM43 °FPassing clouds.23 mph81%29.83 "HgN/A
9:20 PM43 °FPassing clouds.20 mph76%29.83 "HgN/A
8:20 PM43 °FPassing clouds.15 mph81%29.80 "HgN/A
7:20 PM43 °FPassing clouds.20 mph76%29.80 "HgN/A
6:20 PM43 °FPassing clouds.18 mph87%29.77 "HgN/A
5:20 PM43 °FSprinkles. Passing clouds.18 mph87%29.77 "HgN/A
4:20 PM45 °FPassing clouds.21 mph81%29.74 "HgN/A
3:20 PM45 °FScattered clouds.20 mph76%29.71 "HgN/A
Weather by CustomWeather, © 2014

See weather overviewHow to use our weather pages